Preview of NWS' New Version of Forecast
This preview is not operational and should not be used for support decisions.

Regional Weather Roundup (RWR)

Issued by National Weather Service (NWS)

                            
000
ASUS46 KSEW 220510
RWRWA 

WASHINGTON REGIONAL WEATHER ROUNDUP
NATIONAL WEATHER SERVICE SEATTLE WA
1000 PM PDT SUN JUL 21 2019

NOTE:"FAIR" INDICATES FEW OR NO CLOUDS BELOW 12,000 FEET WITH NO 
SIGNIFICANT WEATHER AND/OR OBSTRUCTIONS TO VISIBILITY.

WAZ507-509-555>559-220600-
SEATTLE, TACOMA, EVERETT, AND VICINITY
  
CITY           SKY/WX    TMP DP  RH WIND       PRES   REMARKS
EVERETT        CLEAR     63  45  51 N7        29.96R                  
BOEING FIELD   CLEAR     75  44  33 VRB5      29.92R                  
RENTON         CLEAR     74  54  49 NW9       29.92R                  
SEATAC AIRPORT PTCLDY    72  47  40 N7        29.94R                  
JBLM-MCCHORD   CLEAR     73  56  53 W8        29.95R                  
PUYALLUP       FAIR      66  52  59 CALM      29.95R                  
BREMERTON      CLEAR     67  51  56 CALM      29.95                   
JBLM-FT LEWIS  CLEAR     71  56  59 W7        29.94R                  
TACOMA NARROWS CLEAR     68  48  48 NW3       29.94R                  
$$
 
WAZ001-503-506-510-514-515-220600-
NORTH INTERIOR
  
CITY           SKY/WX    TMP DP  RH WIND       PRES   REMARKS
BELLINGHAM     CLEAR     68  52  56 S8        29.92R                  
FRIDAY HARBOR  CLEAR     54  49  83 CALM      29.94R                  
EASTSOUND      CLEAR     68  54  60 S6        29.91R                  
PORT ANGELES   CLEAR     61  46  57 W9        29.97R                  
EDIZ HOOK      FAIR      60  47  61 W14       29.96R                  
PORT TOWNSEND  FAIR      66  45  45 NW9       29.93R                  
NAS WHIDBEY    PTCLDY    59  49  69 CALM      29.98S                  
ARLINGTON        N/A     64  50  60 N3        29.95R                  
BURLINGTON     CLEAR     59  50  72 CALM      29.94R                  
$$
 
WAZ020-022-039-040-504-511-512-220600-
SOUTHWEST INTERIOR
  
CITY           SKY/WX    TMP DP  RH WIND       PRES   REMARKS
SHELTON        CLEAR     68  49  50 W12       29.93R                  
OLYMPIA        CLEAR     67  49  52 S5        29.94R                  
CHEHALIS       FAIR      66  52  59 VRB6      29.97R                  
KELSO          CLEAR     66  55  67 W5        29.99R                  
VANCOUVER      CLEAR     73  53  49 NW8       29.94R                  
SCAPPOOSE, OR  CLEAR     69  51  52 N10       29.93R                  
PORTLAND, OR   PTCLDY    74  54  49 N6        29.94R                  
$$
 
WAZ021-516-517-220600-
WASHINGTON COAST
  
CITY           SKY/WX    TMP DP  RH WIND       PRES   REMARKS
FORKS          PTCLDY    58  53  84 CALM      30.00R                  
HOQUIAM        CLEAR     60  57  89 W9        30.00R                  
ASTORIA, OR    CLEAR     58  55  90 W6        30.01R                  
$$
 
WAZ019-023-024-040-567>569-220600-
CASCADE MOUNTAINS AND COLUMBIA GORGE
  
CITY           SKY/WX    TMP DP  RH WIND       PRES   REMARKS
STAMPEDE PASS  CLEAR     63  43  48 SW3       30.10R                  
TROUTDALE, OR  CLEAR     74  55  51 VRB7      29.93R                  
HOOD RIVER, OR CLEAR     73  52  46 CALM      29.91R                  
THE DALLES, OR CLEAR     79  51  37 NW7       29.87R                  
$$

WAZ026-027-041>044-520-521-220600-
EAST SLOPES
  
CITY           SKY/WX    TMP DP  RH WIND       PRES   REMARKS
OMAK           CLEAR     74  38  27 NW15      29.96R                  
WENATCHEE      CLEAR     79  41  25 SW7       29.93R                  
ELLENSBURG     CLEAR     67  46  47 NE8       29.96R                  
YAKIMA         CLEAR     66  52  60 W10       29.92R                  
SUNNYSIDE ARPT CLEAR     68  52  57 N8        29.89                   
YAKIMA TC      FAIR      75  33  21 E7        29.92R                  
$$

WAZ028-034-035-220600-
COLUMBIA BASIN
  
CITY           SKY/WX    TMP DP  RH WIND       PRES   REMARKS
EPHRATA        CLEAR     77  35  21 N8        29.92R                  
MOSES LAKE     CLEAR     78  40  25 N10       29.92R                  
PASCO          CLEAR     69  57  65 N7        29.86R                  
RICHLAND ARPT  CLEAR     75  47  36 W8        29.86                   
HERMISTON, OR  PTCLDY    82  47  29 NW3       29.86R                  
$$

WAZ036>038-220600-
NORTHEAST WASHINGTON
  
CITY           SKY/WX    TMP DP  RH WIND       PRES   REMARKS
SPOKANE GEIGER PTCLDY    77  39  25 NE5       30.00S                  
SPOKANE FELTS  CLEAR     69  43  38 N5        29.98R                  
FAIRCHILD AFB  CLEAR     72  38  29 N7        30.00S                  
COEURDALENE,ID CLEAR     68  46  45 NE7       30.01R                  
DEER PARK      CLEAR     67  42  40 N5        30.00S                  
$$

WAZ029>033-220600-
SOUTHEAST WASHINGTON
  
CITY           SKY/WX    TMP DP  RH WIND       PRES   REMARKS
PULLMAN        CLEAR     65  43  44 CALM      30.01R                  
LEWISTON, ID   CLEAR     79  32  18 SE3       29.91S                  
WALLA WALLA    CLEAR     78  46  32 SE12      29.87R                  
PENDLETON, OR  PTCLDY    69  39  33 NW5       29.91R                  
$$